Weather History for Escanaba, MI

Change the Weather History Date:

Monday, November 7, 2011

  Actual Average Record
Temperature  
Mean Temperature 47 °F -  
Max Temperature 57 °F 44 °F 62 °F (1949)
Min Temperature 35 °F 29 °F 4 °F (1991)
Degree Days  
Heating Degree Days 18    
Moisture  
Dew Point 24 °F    
Average Humidity 43    
Maximum Humidity 56    
Minimum Humidity 24    
Precipitation  
Precipitation 0.00 in - - ()
Sea Level Pressure  
Sea Level Pressure 30.06 in    
Wind  
Wind Speed 11 mph (WSW)    
Max Wind Speed 22 mph    
Max Gust Speed 33 mph    
Visibility 10 miles    
Events      
Averages and records for this station are not official NWS values.
T = Trace of Precipitation, MM = Missing Value Source: NWS Daily Summary

Daily Weather History Graph

Daily Weather History Graph

Search for Another Location

Airport:

Trip Planner

Search our weather history database for the weather conditions in past years. The results will help you decide how hot, cold, wet, or windy it might be!

Date:

Astronomy

Nov. 07, 2011 Rise Set
Actual Time 7:36 AM EST 5:27 PM EST
Civil Twilight 7:04 AM EST 5:58 PM EST
Nautical Twilight 6:29 AM EST 6:34 PM EST
Astronomical Twilight 5:54 AM EST 7:08 PM EST
Moon 3:43 PM EST (11/7) 4:31 AM EST (11/7)
Length of Visible Light 10h 53m
Length of Day
9h 50m
Waxing Gibbous, 91% of the Moon is Illuminated
Nov 7
Waxing Gibbous
Nov 10
Full
Nov 18
Last Quarter
Nov 25
New
Dec 2
First Quarter

Hourly Weather History & Observations

Time (EST) Temp. Windchill Dew Point Humidity Pressure Visibility Wind Dir Wind Speed Gust Speed Precip Events Conditions
12:15 AM 48.2 °F - 32.0 °F 54% 29.92 in 10.0 mi WSW 10.4 mph - N/A   Clear
12:35 AM 48.2 °F - 30.2 °F 50% 29.93 in 10.0 mi WSW 9.2 mph - N/A   Clear
12:55 AM 48.2 °F - 30.2 °F 50% 29.94 in 10.0 mi SW 6.9 mph 16.1 mph N/A   Clear
1:15 AM 46.4 °F 42.4 °F 30.2 °F 53% 29.95 in 10.0 mi SW 8.1 mph - N/A   Clear
1:35 AM 46.4 °F 41.9 °F 30.2 °F 53% 29.96 in 10.0 mi SW 9.2 mph - N/A   Clear
1:55 AM 46.4 °F 41.9 °F 28.4 °F 50% 29.97 in 10.0 mi SW 9.2 mph - N/A   Clear
2:15 AM 44.6 °F 40.2 °F 28.4 °F 53% 29.97 in 10.0 mi SW 8.1 mph - N/A   Clear
2:35 AM 44.6 °F 41.4 °F 28.4 °F 53% 29.99 in 10.0 mi SW 5.8 mph - N/A   Clear
2:55 AM 42.8 °F 38.6 °F 26.6 °F 53% 29.99 in 10.0 mi SSW 6.9 mph - N/A   Clear
3:15 AM 42.8 °F 38.0 °F 26.6 °F 53% 29.99 in 10.0 mi SSW 8.1 mph - N/A   Clear
3:35 AM 42.8 °F 38.0 °F 26.6 °F 53% 29.99 in 10.0 mi SSW 8.1 mph - N/A   Clear
3:55 AM 42.8 °F 38.0 °F 26.6 °F 53% 30.00 in 10.0 mi SSW 8.1 mph - N/A   Clear
4:15 AM 44.6 °F 38.8 °F 28.4 °F 53% 30.00 in 10.0 mi SSW 11.5 mph - N/A   Clear
4:35 AM 44.6 °F 38.8 °F 28.4 °F 53% 30.00 in 10.0 mi SSW 11.5 mph - N/A   Clear
4:55 AM 44.6 °F 38.1 °F 28.4 °F 53% 30.01 in 10.0 mi SSW 13.8 mph 20.7 mph N/A   Clear
5:15 AM 44.6 °F 38.1 °F 28.4 °F 53% 30.01 in 10.0 mi SSW 13.8 mph 18.4 mph N/A   Clear
5:35 AM 44.6 °F 38.4 °F 28.4 °F 53% 30.02 in 10.0 mi SSW 12.7 mph 19.6 mph N/A   Clear
6:15 AM 42.8 °F 35.8 °F 26.6 °F 53% 30.03 in 10.0 mi SSW 13.8 mph - N/A   Clear
6:35 AM 42.8 °F 36.6 °F 26.6 °F 53% 30.03 in 10.0 mi SW 11.5 mph 17.3 mph N/A   Clear
6:55 AM 41.0 °F 33.9 °F 24.8 °F 53% 30.04 in 10.0 mi SSW 12.7 mph 17.3 mph N/A   Clear
7:55 AM 39.2 °F 32.5 °F 24.8 °F 56% 30.05 in 10.0 mi SW 10.4 mph - N/A   Clear
8:15 AM 41.0 °F 34.7 °F 24.8 °F 53% 30.05 in 10.0 mi SW 10.4 mph 19.6 mph N/A   Clear
8:35 AM 41.0 °F 34.3 °F 24.8 °F 53% 30.05 in 10.0 mi SW 11.5 mph - N/A   Clear
8:55 AM 42.8 °F 36.6 °F 26.6 °F 53% 30.06 in 10.0 mi SW 11.5 mph - N/A   Clear
9:15 AM 44.6 °F 38.4 °F 24.8 °F 46% 30.05 in 10.0 mi SW 12.7 mph - N/A   Clear
9:35 AM 44.6 °F 38.4 °F 24.8 °F 46% 30.05 in 10.0 mi SW 12.7 mph - N/A   Clear
9:55 AM 46.4 °F 39.5 °F 24.8 °F 43% 30.05 in 10.0 mi SW 17.3 mph 24.2 mph N/A   Clear
10:15 AM 48.2 °F - 23.0 °F 37% 30.05 in 10.0 mi SW 16.1 mph - N/A   Clear
10:55 AM 50.0 °F - 21.2 °F 32% 30.05 in 10.0 mi SW 15.0 mph 29.9 mph N/A   Clear
11:15 AM 51.8 °F - 21.2 °F 30% 30.04 in 10.0 mi WSW 17.3 mph 28.8 mph N/A   Clear
11:35 AM 51.8 °F - 19.4 °F 28% 30.04 in 10.0 mi WSW 12.7 mph 28.8 mph N/A   Clear
11:55 AM 53.6 °F - 19.4 °F 26% 30.04 in 10.0 mi WSW 21.9 mph 33.4 mph N/A   Clear
12:15 PM 53.6 °F - 17.6 °F 24% 30.04 in 10.0 mi WSW 17.3 mph 28.8 mph N/A   Clear
12:55 PM 53.6 °F - 19.4 °F 26% 30.04 in 10.0 mi WSW 21.9 mph 27.6 mph N/A   Clear
1:15 PM 55.4 °F - 19.4 °F 25% 30.04 in 10.0 mi WSW 19.6 mph 33.4 mph N/A   Clear
1:35 PM 55.4 °F - 19.4 °F 25% 30.04 in 10.0 mi WSW 19.6 mph 26.5 mph N/A   Clear
1:55 PM 55.4 °F - 19.4 °F 25% 30.04 in 10.0 mi WSW 17.3 mph 23.0 mph N/A   Clear
2:15 PM 55.4 °F - 21.2 °F 26% 30.03 in 10.0 mi WSW 21.9 mph 29.9 mph N/A   Clear
2:35 PM 57.2 °F - 21.2 °F 25% 30.04 in 10.0 mi WSW 20.7 mph 25.3 mph N/A   Clear
2:55 PM 57.2 °F - 21.2 °F 25% 30.04 in 10.0 mi WSW 17.3 mph 29.9 mph N/A   Clear
3:15 PM 57.2 °F - 21.2 °F 25% 30.05 in 10.0 mi WSW 13.8 mph 27.6 mph N/A   Clear
4:15 PM 55.4 °F - 21.2 °F 26% 30.07 in 10.0 mi West 11.5 mph 18.4 mph N/A   Clear
4:35 PM 55.4 °F - 21.2 °F 26% 30.07 in 10.0 mi WSW 11.5 mph 18.4 mph N/A   Clear
4:55 PM 53.6 °F - 21.2 °F 28% 30.07 in 10.0 mi WSW 10.4 mph - N/A   Clear
5:15 PM 53.6 °F - 21.2 °F 28% 30.08 in 10.0 mi WSW 8.1 mph - N/A   Clear
5:35 PM 51.8 °F - 21.2 °F 30% 30.10 in 10.0 mi WSW 9.2 mph - N/A   Clear
5:55 PM 50.0 °F - 21.2 °F 32% 30.11 in 10.0 mi WSW 5.8 mph - N/A   Clear
6:15 PM 48.2 °F - 21.2 °F 34% 30.12 in 10.0 mi SW 4.6 mph - N/A   Clear
6:55 PM 44.6 °F 42.2 °F 21.2 °F 39% 30.13 in 10.0 mi West 4.6 mph - N/A   Clear
7:15 PM 44.6 °F 42.2 °F 21.2 °F 39% 30.14 in 10.0 mi WSW 4.6 mph - N/A   Clear
8:15 PM 39.2 °F 34.2 °F 21.2 °F 49% 30.16 in 10.0 mi West 6.9 mph - N/A   Clear
8:35 PM 39.2 °F 35.0 °F 21.2 °F 49% 30.17 in 10.0 mi West 5.8 mph - N/A   Clear
9:15 PM 37.4 °F 33.8 °F 19.4 °F 48% 30.19 in 10.0 mi West 4.6 mph - N/A   Clear
9:35 PM 37.4 °F 32.8 °F 21.2 °F 52% 30.19 in 10.0 mi West 5.8 mph - N/A   Clear
9:55 PM 37.4 °F 33.8 °F 19.4 °F 48% 30.19 in 10.0 mi West 4.6 mph - N/A   Clear
10:15 PM 37.4 °F 34.9 °F 21.2 °F 52% 30.20 in 10.0 mi West 3.5 mph - N/A   Clear
10:35 PM 37.4 °F 33.8 °F 21.2 °F 52% 30.20 in 10.0 mi West 4.6 mph - N/A   Clear
11:15 PM 37.4 °F 32.8 °F 21.2 °F 52% 30.19 in 10.0 mi WNW 5.8 mph - N/A   Clear
11:35 PM 37.4 °F 33.8 °F 19.4 °F 48% 30.18 in 10.0 mi WNW 4.6 mph - N/A   Clear
11:55 PM 35.6 °F 30.7 °F 19.4 °F 52% 30.19 in 10.0 mi WNW 5.8 mph - N/A   Clear